Regional Weather Roundup
Issued by NWS

Home | Current Version | Previous Version | Graphics & Text | Print | Product List | Glossary On
Versions: 1 2 3 4 5 6 7 8 9 10 11 12 13 14 15 16 17 18 19 20 21 22 23 24 25 26 27 28 29 30 31 32 33 34 35 36 37 38 39 40 41 42 43 44 45 46 47 48 49 50
000
ASUS43 KLOT 060112
RWRIL

ILLINOIS REGIONAL WEATHER ROUNDUP
NATIONAL WEATHER SERVICE CHICAGO/ROMEOVILLE IL
700 PM CST MON DEC 05 2016

NOTE: "FAIR" INDICATES FEW OR NO CLOUDS BELOW 12,000 FEET WITH NO
SIGNIFICANT WEATHER AND/OR OBSTRUCTIONS TO VISIBILITY.

* THESE STATIONS ARE NOT UNDER NWS QUALITY CONTROL. THEY ALSO MAY NOT
  REPORT WEATHER SUCH AS PRECIPITATION OR FOG.

ILZ001-002-007-009-015-016-024-060200-
NORTHWEST ILLINOIS

CITY           SKY/WX    TMP DP  RH WIND       PRES   REMARKS
MOLINE         CLOUDY    35  31  85 SE12      29.90F WCI  27
STERLING*      CLOUDY    31  30  96 SE8       29.94F FOG     WCI  23
SAVANNA*       CLOUDY    32  32  97 SE13      29.93R WCI  23
$$

ILZ003-004-008-010-011-017-018-060200-
NORTH CENTRAL ILLINOIS

CITY           SKY/WX    TMP DP  RH WIND       PRES   REMARKS
ROCKFORD       CLOUDY    31  29  92 SE12      29.96F FOG     WCI  22
FREEPORT*      CLOUDY    31  30  98 SE12      29.95S FOG     WCI  21
ROCHELLE*      CLOUDY    30  30  99 SE9       29.97R FOG     WCI  22
DE KALB*       CLOUDY    31  30  98 SE9       29.97R FOG     WCI  23
$$

ILZ005-006-012>014-019>023-060200-
NORTHEAST ILLINOIS

CITY           SKY/WX    TMP DP  RH WIND       PRES   REMARKS
CHICAGO-OHARE  CLOUDY    32  30  92 SE7       29.98S FOG     WCI  26
CHICAGO-MIDWAY CLOUDY    33  29  85 SE10      29.99F WCI  25
AURORA         CLOUDY    32  30  92 SE8       29.98R FOG     WCI  25
LANSING*       CLOUDY    32  32 100 SE7       30.00S WCI  26
JOLIET*        CLOUDY    32  32  99 SE9       29.99S FOG     WCI  25
WAUKEGAN       CLOUDY    33  31  92 S6        29.98S FOG     WCI  28
DUPAGE AIRPORT CLOUDY    31  28  89 SE8       29.96F FOG     WCI  23
KANKAKEE*      CLEAR     32  31  96 CALM      29.98S
WHEELING       CLOUDY    32  30  92 S6        30.00S FOG     WCI  26
MORRIS*        CLOUDY    32  31  96 SE5       29.97F WCI  27
ROMEOVILLE*    CLOUDY    31  31 100 SE9       29.99S WCI  23
NORTHERLY ISL    N/A     34  32  92 E6          N/A  WCI  29
$$

LMZ740>746-060200-
SOUTHERN LAKE MICHIGAN

STATION/POSITION SKY/WX   TEMP    WIND        PRES    VSBY  WAVE
                          AIR SEA DIR/SP/G                  HT/PER
                          (F)     (DEG/KT/KT) (MB)    (MI)  (FT/S)
HARRISON CRIB              36     160/  7/ 11   N/A
BURNHAM HARBOR             33     130/  6/  7   N/A
CALUMET HARBOR             32     150/  5/  7 1015.4S
BURNS HARBOR               33     110/  8/ 13 1016.3F
$$

ILZ025>027-034>036-040-047-049-050-058-095>099-060200-
WEST-CENTRAL ILLINOIS

CITY           SKY/WX    TMP DP  RH WIND       PRES   REMARKS
QUINCY         CLEAR     36  34  92 E12       29.84F FOG     WCI  28
GALESBURG*     CLOUDY    34  33  95 SE6       29.90F WCI  29
MACOMB*        CLOUDY    36  34  94 SE9       29.91R WCI  29
JACKSONVILLE*  CLEAR     33  32  96 E8        29.88S WCI  26
PITTSFIELD*    CLEAR     36  35  94 E5        29.87F WCI  32
$$

ILZ028>032-037-038-041>044-048-051>054-059>061-060200-
CENTRAL ILLINOIS

CITY           SKY/WX    TMP DP  RH WIND       PRES   REMARKS
PONTIAC        CLOUDY    34  34 100 E7        29.96F FOG     WCI  28
BLOOMINGTON    PTCLDY    34  33  96 E8        29.93F WCI  27
DECATUR        PTCLDY    32  30  92 E6        29.91F WCI  26
PEORIA         CLOUDY    36  34  92 E6        29.93F WCI  31
LACON*         CLOUDY    33  32  97 SE6       29.94F WCI  27
LINCOLN*       CLOUDY    34  34  99 E5        29.92S WCI  30
SPRINGFIELD    CLOUDY    36  34  92 E7        29.90F WCI  30
TAYLORVILLE    CLOUDY    36  34  93 E7        29.89F WCI  30
$$

ILZ033-039-045-046-055>057-062-063-060200-
EAST-CENTRAL ILLINOIS

CITY           SKY/WX    TMP DP  RH WIND       PRES   REMARKS
CHAMPAIGN      PTCLDY    34  31  88 E8        29.92F WCI  27
RANTOUL*       PTCLDY    34  33  97 E8        29.93F WCI  27
MATTOON        PTCLDY    35  32  88 E6        29.90F WCI  30
PARIS*         CLEAR     35  32  90 E7        29.93F WCI  29
$$

ILZ079-100>102-060200-
SOUTHWEST ILLINOIS

CITY           SKY/WX    TMP DP  RH WIND       PRES   REMARKS
ALTON          PTCLDY    36  34  93 E9        29.88S WCI  29
BELLEVILLE     CLOUDY    38  37  97 E7        29.87S WCI  33
CAHOKIA*       MOCLDY    39  33  79 SE9       29.87F WCI  33
SPARTA*        PTCLDY    37  34  89 E8        29.87F WCI  31
$$

ILZ064>066-069>071-074>076-080>082-084>086-088>090-092>094-060200-
SOUTH-CENTRAL ILLINOIS

CITY           SKY/WX    TMP DP  RH WIND       PRES   REMARKS
CARBONDALE     CLOUDY    40  37  89 E7        29.88F
CAIRO*         CLOUDY    41  37  87 NE9       29.86F
EFFINGHAM*     CLEAR     36  36  99 E6        29.92F WCI  31
CENTRALIA*     PTCLDY    39  36  89 CALM      29.88F
SALEM*         PTCLDY    37  34  87 E5        29.89F WCI  34
METROPOLIS*    CLOUDY    41  37  84 CALM      29.88F
$$

ILZ067-068-072-073-078-083-087-091-060200-
SOUTHEAST ILLINOIS

CITY           SKY/WX    TMP DP  RH WIND       PRES   REMARKS
LAWRENCEVILLE  CLEAR     35  32  88 E8        29.92F WCI  29
FLORA*         CLEAR     36  33  90 E5        29.91F WCI  32
FAIRFIELD*     CLOUDY    35  33  94 CALM      29.89F
HARRISBURG*    CLOUDY    40  37  87 E9        29.90F
ROBINSON*      CLEAR     34  32  93 E5        29.93F WCI  30
CARMI*         CLOUDY    39  37  89 E5        29.90S
$$

ABBREVIATIONS USED IN REMARKS
   TC - TEMPERATURE IN CELSIUS
  WCI - WIND CHILL INDEX
   HX - HEAT INDEX
  VSB - VISIBILITY
$$




USA.gov is the U.S. government's official web portal to all federal, state and local government web resources and services.